Total_Precipitation_Accumulation
0.61 0.81 0.92 0.86 0.88 0.96 0.90 0.87 0.89 0.80 0.69 0.77 0.82 0.86 0.78 0.71 0.66 0.69 0.73 0.70 0.74 0.66 0.60 0.58 0.65 0.69 0.82 0.88 0.84 0.87 0.91 0.84 0.78 0.74 0.82 0.94 1.02 1.16 1.26 1.32 1.39 1.38 1.36 1.42
0.63 0.65 0.58 0.61 0.70 0.88 0.94 0.96 0.94 0.87 0.73 0.77 0.81 0.84 0.75 0.69 0.66 0.59 0.61 0.63 0.69 0.62 0.54 0.50 0.60 0.64 0.66 0.72 0.71 0.76 0.81 0.78 0.72 0.67 0.73 0.86 1.02 1.15 1.30 1.49 1.72 1.64 1.50 1.51
0.61 0.54 0.46 0.51 0.63 0.81 0.83 0.80 0.75 0.87 0.85 0.88 0.98 1.05 0.84 0.73 0.67 0.58 0.56 0.64 0.72 0.68 0.55 0.48 0.53 0.62 0.59 0.61 0.68 0.72 0.75 0.76 0.78 0.86 1.04 1.31 1.61 1.77 1.82 1.86 2.09 2.10 1.93 1.85
0.76 0.52 0.44 0.49 0.56 0.65 0.88 0.64 0.58 0.76 1.05 1.09 0.98 1.17 0.83 0.71 0.75 0.62 0.59 0.59 0.63 0.65 0.64 0.58 0.55 0.60 0.54 0.58 0.69 0.76 0.77 0.86 0.87 1.02 1.35 1.78 2.12 2.32 2.28 2.33 2.38 2.47 2.35 2.16
0.64 0.44 0.45 0.51 0.47 0.57 0.84 0.69 0.72 0.83 0.98 0.96 0.76 0.87 0.76 0.71 0.79 0.68 0.63 0.61 0.60 0.55 0.57 0.61 0.60 0.63 0.62 0.64 0.71 0.84 0.94 1.10 1.28 1.38 1.58 1.88 2.03 2.10 2.25 2.43 2.67 2.84 2.87 2.81
0.48 0.38 0.40 0.43 0.43 0.51 0.68 0.85 1.00 1.02 1.07 1.04 0.60 0.63 0.68 0.64 0.61 0.66 0.68 0.69 0.64 0.58 0.53 0.57 0.65 0.71 0.71 0.80 0.90 0.96 1.15 1.29 1.35 1.49 1.61 1.72 1.80 1.90 2.11 2.29 2.54 2.73 2.77 2.82
0.56 0.48 0.39 0.38 0.57 0.64 0.70 1.02 1.41 1.52 1.41 1.00 0.47 0.50 0.58 0.45 0.39 0.45 0.51 0.51 0.50 0.55 0.57 0.62 0.64 0.73 0.78 0.84 1.00 1.10 1.22 1.37 1.40 1.50 1.60 1.62 1.71 1.82 1.96 2.02 2.07 2.13 2.12 2.17
0.57 0.56 0.39 0.35 0.44 0.56 0.60 0.76 1.19 1.42 1.17 0.81 0.51 0.60 0.56 0.37 0.30 0.27 0.32 0.37 0.44 0.57 0.63 0.67 0.67 0.79 0.90 0.96 1.07 1.21 1.33 1.42 1.45 1.54 1.66 1.63 1.73 1.86 1.91 1.83 1.77 1.86 1.91 1.97
0.50 0.49 0.30 0.31 0.31 0.38 0.59 0.62 0.69 0.89 0.74 0.72 0.59 0.53 0.43 0.27 0.24 0.23 0.30 0.43 0.54 0.62 0.68 0.74 0.78 0.88 0.97 1.04 1.13 1.24 1.43 1.51 1.57 1.59 1.69 1.80 1.85 1.85 1.81 1.67 1.60 1.67 1.63 1.60
0.39 0.49 0.40 0.35 0.39 0.40 0.47 0.61 0.79 0.94 1.00 0.90 0.63 0.55 0.52 0.38 0.33 0.34 0.39 0.49 0.65 0.75 0.80 0.85 0.94 1.03 1.10 1.10 1.21 1.31 1.46 1.60 1.60 1.57 1.73 1.93 1.92 1.68 1.54 1.40 1.36 1.38 1.42 1.47
0.30 0.45 0.50 0.46 0.45 0.44 0.48 0.53 0.69 0.84 0.81 1.01 1.08 1.00 0.81 0.77 0.63 0.65 0.67 0.75 0.93 1.00 1.03 1.01 1.07 1.15 1.17 1.18 1.27 1.32 1.46 1.63 1.67 1.56 1.68 1.72 1.54 1.31 1.21 1.20 1.18 1.15 1.14 1.18
0.29 0.43 0.48 0.39 0.29 0.30 0.41 0.42 0.52 0.82 0.79 0.80 1.14 1.13 0.93 0.98 0.97 1.06 1.12 1.26 1.22 1.21 1.26 1.15 1.11 1.13 1.08 1.10 1.19 1.28 1.43 1.54 1.47 1.43 1.41 1.23 1.08 0.99 0.96 0.95 0.93 0.90 0.93 0.94
0.39 0.49 0.61 0.57 0.51 0.37 0.39 0.33 0.36 0.53 0.76 0.81 1.16 1.16 0.85 0.94 1.09 1.26 1.35 1.35 1.16 1.04 0.99 0.95 0.93 0.88 0.85 0.90 0.95 1.00 1.18 1.30 1.12 1.03 1.05 1.03 0.98 0.92 0.88 0.87 0.87 0.85 0.89 0.91
0.40 0.44 0.53 0.62 0.52 0.36 0.37 0.33 0.32 0.48 0.75 0.75 0.86 0.88 0.75 0.88 1.07 1.18 1.21 1.08 0.86 0.78 0.75 0.72 0.64 0.60 0.65 0.68 0.68 0.66 0.74 0.91 0.87 0.81 0.85 0.87 0.91 0.93 0.95 0.97 0.98 0.93 0.95 0.96
0.41 0.42 0.34 0.32 0.27 0.26 0.28 0.29 0.32 0.41 0.50 0.64 0.71 0.69 0.64 0.68 0.73 0.75 0.77 0.75 0.66 0.62 0.55 0.53 0.52 0.52 0.57 0.57 0.58 0.57 0.55 0.62 0.66 0.67 0.69 0.79 0.87 0.93 0.96 1.03 1.05 1.01 0.99 0.95
0.38 0.39 0.29 0.29 0.25 0.23 0.21 0.21 0.26 0.32 0.39 0.48 0.50 0.51 0.44 0.39 0.35 0.34 0.36 0.42 0.42 0.40 0.38 0.43 0.46 0.49 0.57 0.57 0.54 0.56 0.56 0.53 0.53 0.54 0.58 0.71 0.80 0.83 0.90 0.93 0.96 0.98 1.01 0.99
0.40 0.43 0.43 0.33 0.25 0.29 0.33 0.27 0.27 0.31 0.32 0.39 0.46 0.48 0.42 0.34 0.29 0.28 0.26 0.26 0.28 0.30 0.33 0.37 0.41 0.46 0.53 0.52 0.51 0.52 0.54 0.52 0.52 0.54 0.59 0.69 0.73 0.71 0.74 0.79 0.79 0.78 0.88 0.94
0.35 0.45 0.57 0.46 0.40 0.48 0.37 0.26 0.25 0.25 0.28 0.34 0.40 0.37 0.35 0.29 0.29 0.27 0.24 0.24 0.27 0.28 0.29 0.33 0.36 0.40 0.49 0.51 0.52 0.53 0.52 0.51 0.50 0.53 0.55 0.64 0.66 0.65 0.66 0.71 0.69 0.69 0.76 0.84
0.30 0.46 0.67 0.62 0.50 0.33 0.26 0.25 0.28 0.28 0.30 0.33 0.33 0.29 0.26 0.22 0.26 0.26 0.21 0.20 0.22 0.22 0.24 0.29 0.34 0.41 0.49 0.53 0.58 0.60 0.56 0.56 0.60 0.59 0.55 0.54 0.58 0.61 0.64 0.60 0.59 0.59 0.65 0.69
0.36 0.44 0.67 0.71 0.66 0.45 0.30 0.20 0.23 0.29 0.41 0.35 0.32 0.31 0.27 0.26 0.33 0.31 0.23 0.19 0.19 0.20 0.22 0.27 0.33 0.41 0.46 0.53 0.59 0.63 0.65 0.59 0.60 0.63 0.63 0.62 0.62 0.60 0.62 0.59 0.56 0.57 0.64 0.67
0.50 0.57 0.64 0.67 0.67 0.41 0.22 0.16 0.21 0.44 0.52 0.35 0.32 0.33 0.31 0.30 0.30 0.27 0.20 0.18 0.21 0.24 0.26 0.26 0.32 0.42 0.45 0.52 0.57 0.64 0.67 0.58 0.56 0.64 0.73 0.76 0.68 0.65 0.70 0.71 0.67 0.64 0.64 0.68
0.62 0.67 0.62 0.65 0.74 0.54 0.23 0.24 0.39 0.48 0.36 0.29 0.28 0.28 0.28 0.26 0.22 0.20 0.20 0.21 0.24 0.26 0.27 0.28 0.31 0.38 0.42 0.49 0.54 0.57 0.61 0.60 0.60 0.60 0.66 0.69 0.69 0.68 0.71 0.80 0.81 0.79 0.79 0.77
0.59 0.67 0.71 0.66 0.59 0.40 0.28 0.34 0.35 0.34 0.35 0.29 0.26 0.24 0.23 0.23 0.22 0.20 0.20 0.21 0.24 0.25 0.28 0.31 0.35 0.40 0.43 0.49 0.50 0.53 0.58 0.64 0.61 0.59 0.61 0.64 0.67 0.69 0.68 0.73 0.81 0.87 0.86 0.83
0.49 0.48 0.62 0.61 0.43 0.34 0.33 0.30 0.30 0.29 0.28 0.26 0.25 0.23 0.23 0.23 0.24 0.22 0.20 0.19 0.21 0.23 0.26 0.32 0.39 0.45 0.47 0.51 0.56 0.63 0.64 0.63 0.64 0.64 0.64 0.62 0.63 0.64 0.65 0.68 0.72 0.76 0.80 0.77
0.56 0.61 0.64 0.61 0.46 0.41 0.37 0.33 0.31 0.29 0.24 0.22 0.21 0.19 0.22 0.24 0.24 0.24 0.22 0.20 0.19 0.21 0.23 0.28 0.37 0.47 0.51 0.54 0.59 0.65 0.63 0.63 0.67 0.71 0.69 0.65 0.63 0.63 0.64 0.62 0.64 0.67 0.69 0.78
0.53 0.66 0.76 0.72 0.50 0.50 0.42 0.31 0.28 0.29 0.27 0.24 0.22 0.18 0.17 0.19 0.21 0.23 0.22 0.21 0.19 0.18 0.21 0.26 0.30 0.37 0.44 0.48 0.51 0.55 0.58 0.59 0.65 0.71 0.69 0.65 0.68 0.67 0.66 0.66 0.69 0.76 0.77 0.85